Location: Hamburg
(53.5511°N, 9.9937°E)
Time: 16:02:37
(UTC+02:00)

ISS - Pass Details

Date: 16 March 2026
Orbit: 416 x 425 km, 51.6° (Epoch: 19 April)

Event Time Altitude Azimuth Distance (km) Brightness Sun altitude
Rises 18:56:27 0° 226° (SW) 2,382 0.8 -5.4°
Reaches altitude 10° 18:58:43 10° 215° (SW) 1,517 -0.5 -5.7°
Maximum altitude 19:01:42 29° 154° (SSE) 815 -2.6 -6.1°
Drops below altitude 10° 19:04:43 10° 92° (E) 1,518 -1.6 -6.6°
Enters shadow 19:04:59 - 90° (E) 1,620 -1.5 -6.6°
